| time (UTC) | temp F | wind direction | speed knots | gust knots | rain 1hr in | rain 24hr in | rain mn in | humidity % | barometer mb |
| 20260505035504 | 59 | 262 | 5.2 | 11.3 | 0.00 | 0.00 | 0.00 | 54 | 1009.6 |
| 20260505035007 | 59 | 230 | 6.1 | 12.2 | 0.00 | 0.00 | 0.00 | 54 | 1009.5 |
| 20260505034008 | 59 | 210 | 5.2 | 10.4 | 0.00 | 0.00 | 0.00 | 53 | 1009.5 |
| 20260505033506 | 59 | 167 | 6.1 | 10.4 | 0.00 | 0.00 | 0.00 | 53 | 1009.5 |
| 20260505033022 | 59 | 248 | 4.3 | 10.4 | 0.00 | 0.00 | 0.00 | 53 | 1009.4 |
| 20260505032507 | 59 | 210 | 5.2 | 13.0 | 0.00 | 0.00 | 0.00 | 53 | 1009.4 |
| 20260505032008 | 59 | 255 | 7.8 | 13.0 | 0.00 | 0.00 | 0.00 | 52 | 1009.4 |
| 20260505031523 | 60 | 218 | 6.1 | 13.0 | 0.00 | 0.00 | 0.00 | 52 | 1009.4 |
| 20260505031007 | 60 | 242 | 5.2 | 13.0 | 0.00 | 0.00 | 0.00 | 52 | 1009.4 |
| 20260505030508 | 60 | 228 | 7.0 | 13.0 | 0.00 | 0.00 | 0.00 | 52 | 1009.4 |
| 20260505030042 | 60 | 203 | 6.1 | 12.2 | 0.00 | 0.00 | 0.00 | 51 | 1009.5 |
| 20260505025508 | 60 | 172 | 5.2 | 11.3 | 0.00 | 0.00 | 0.00 | 51 | 1009.5 |
| 20260505025008 | 60 | 214 | 7.0 | 11.3 | 0.00 | 0.00 | 0.00 | 51 | 1009.4 |
| 20260505024519 | 60 | 160 | 6.1 | 10.4 | 0.00 | 0.00 | 0.00 | 50 | 1009.4 |
| 20260505024009 | 60 | 172 | 5.2 | 10.4 | 0.00 | 0.00 | 0.00 | 50 | 1009.5 |
| 20260505023507 | 61 | 179 | 7.0 | 11.3 | 0.00 | 0.00 | 0.00 | 50 | 1009.4 |
| 20260505023025 | 61 | 139 | 6.1 | 11.3 | 0.00 | 0.00 | 0.00 | 49 | 1009.4 |
| 20260505022506 | 61 | 226 | 5.2 | 10.4 | 0.00 | 0.00 | 0.00 | 49 | 1009.4 |
| 20260505022011 | 61 | 204 | 6.1 | 15.6 | 0.00 | 0.00 | 0.00 | 49 | 1009.4 |
| 20260505021525 | 62 | 227 | 7.8 | 15.6 | 0.00 | 0.00 | 0.00 | 48 | 1009.4 |
| 20260505021004 | 62 | 242 | 7.0 | 12.2 | 0.00 | 0.00 | 0.00 | 48 | 1009.4 |
| 20260505020503 | 62 | 227 | 7.8 | 12.2 | 0.00 | 0.00 | 0.00 | 48 | 1009.3 |
| 20260505015504 | 62 | 219 | 6.1 | 13.0 | 0.00 | 0.00 | 0.00 | 48 | 1009.3 |
| 20260505015004 | 62 | 243 | 8.7 | 13.0 | 0.00 | 0.00 | 0.00 | 47 | 1009.2 |
| 20260505014520 | 62 | 240 | 7.0 | 13.0 | 0.00 | 0.00 | 0.00 | 48 | 1009.1 |
| 20260505014008 | 62 | 199 | 7.0 | 13.0 | 0.00 | 0.00 | 0.00 | 48 | 1009.2 |
| 20260505013507 | 63 | 216 | 7.8 | 13.0 | 0.00 | 0.00 | 0.00 | 47 | 1009.1 |
| 20260505013022 | 63 | 220 | 6.1 | 10.4 | 0.00 | 0.00 | 0.00 | 47 | 1009.1 |
| 20260505012503 | 63 | 224 | 6.1 | 14.8 | 0.00 | 0.00 | 0.00 | 47 | 1009.0 |
| 20260505012001 | 63 | 231 | 8.7 | 14.8 | 0.00 | 0.00 | 0.00 | 46 | 1008.9 |
| 20260505011003 | 64 | 200 | 7.8 | 13.9 | 0.00 | 0.00 | 0.00 | 45 | 1008.6 |
| 20260505010502 | 64 | 198 | 7.0 | 13.0 | 0.00 | 0.00 | 0.00 | 45 | 1008.5 |
| 20260505010008 | 64 | 225 | 5.2 | 13.0 | 0.00 | 0.00 | 0.00 | 45 | 1008.5 |
| 20260505005507 | 64 | 207 | 5.2 | 12.2 | 0.00 | 0.00 | 0.00 | 44 | 1008.3 |
| 20260505005004 | 65 | 250 | 7.0 | 12.2 | 0.00 | 0.00 | 0.00 | 44 | 1008.1 |
| 20260505004524 | 65 | 252 | 5.2 | 13.9 | 0.00 | 0.00 | 0.00 | 44 | 1007.9 |
| 20260505004004 | 65 | 164 | 8.7 | 13.9 | 0.00 | 0.00 | 0.00 | 42 | 1007.8 |
| 20260505003505 | 65 | 223 | 7.0 | 13.9 | 0.00 | 0.00 | 0.00 | 43 | 1007.7 |
| 20260505002505 | 66 | 239 | 8.7 | 14.8 | 0.00 | 0.00 | 0.00 | 41 | 1007.6 |
| 20260505002008 | 66 | 240 | 7.8 | 14.8 | 0.00 | 0.00 | 0.00 | 40 | 1007.4 |
| 20260505001518 | 66 | 145 | 7.0 | 11.3 | 0.00 | 0.00 | 0.00 | 40 | 1007.2 |
| 20260505001003 | 66 | 163 | 1.7 | 6.1 | 0.00 | 0.00 | 0.00 | 38 | 1007.0 |
| 20260505000507 | 66 | 222 | 3.5 | 6.1 | 0.00 | 0.00 | 0.00 | 37 | 1006.9 |
| 20260505000009 | 67 | 208 | 0.9 | 5.2 | 0.00 | 0.00 | 0.00 | 38 | 1006.8 |
| 20260504235503 | 67 | 203 | 1.7 | 5.2 | 0.00 | 0.00 | 0.00 | 37 | 1006.8 |
| 20260504235004 | 67 | 200 | 1.7 | 7.8 | 0.00 | 0.00 | 0.00 | 37 | 1006.7 |
| 20260504234512 | 68 | 288 | 3.5 | 7.8 | 0.00 | 0.00 | 0.00 | 36 | 1006.7 |
| 20260504234003 | 68 | 224 | 1.7 | 7.8 | 0.00 | 0.00 | 0.00 | 36 | 1006.7 |
| 20260504233504 | 68 | 210 | 3.5 | 7.8 | 0.00 | 0.00 | 0.00 | 35 | 1006.6 |
| 20260504233021 | 69 | 211 | 3.5 | 7.0 | 0.00 | 0.00 | 0.00 | 34 | 1006.4 |
| 20260504232507 | 69 | 223 | 3.5 | 6.1 | 0.00 | 0.00 | 0.00 | 35 | 1006.5 |
| 20260504232005 | 69 | 291 | 3.5 | 7.0 | 0.00 | 0.00 | 0.00 | 34 | 1006.4 |
| 20260504231516 | 70 | 212 | 3.5 | 7.0 | 0.00 | 0.00 | 0.00 | 34 | 1006.4 |
| 20260504231011 | 70 | 187 | 4.3 | 7.0 | 0.00 | 0.00 | 0.00 | 33 | 1006.2 |
| 20260504230507 | 70 | 218 | 1.7 | 7.0 | 0.00 | 0.00 | 0.00 | 33 | 1006.1 |
| 20260504230022 | 71 | 247 | 2.6 | 11.3 | 0.00 | 0.00 | 0.00 | 33 | 1006.0 |
| 20260504225504 | 71 | 208 | 4.3 | 11.3 | 0.00 | 0.00 | 0.00 | 31 | 1006.0 |
| 20260504225003 | 72 | 239 | 3.5 | 9.6 | 0.00 | 0.00 | 0.00 | 31 | 1006.0 |
| 20260504224505 | 72 | 220 | 4.3 | 10.4 | 0.00 | 0.00 | 0.00 | 31 | 1005.9 |
| 20260504224003 | 72 | 229 | 3.5 | 10.4 | 0.00 | 0.00 | 0.00 | 31 | 1005.9 |
| 20260504223504 | 72 | 258 | 3.5 | 8.7 | 0.00 | 0.00 | 0.00 | 30 | 1005.9 |
| 20260504223022 | 72 | 229 | 4.3 | 9.6 | 0.00 | 0.00 | 0.00 | 31 | 1005.8 |
| 20260504222504 | 72 | 225 | 5.2 | 9.6 | 0.00 | 0.00 | 0.00 | 32 | 1005.8 |
| 20260504222008 | 72 | 226 | 3.5 | 9.6 | 0.00 | 0.00 | 0.00 | 31 | 1005.8 |
| 20260504221516 | 72 | 219 | 5.2 | 11.3 | 0.00 | 0.00 | 0.00 | 31 | 1005.9 |
| 20260504221008 | 72 | 236 | 4.3 | 11.3 | 0.00 | 0.00 | 0.00 | 31 | 1005.8 |
| 20260504220505 | 73 | 179 | 4.3 | 11.3 | 0.00 | 0.00 | 0.00 | 30 | 1005.8 |
| 20260504220023 | 73 | 242 | 3.5 | 9.6 | 0.00 | 0.00 | 0.00 | 30 | 1005.8 |
| 20260504215509 | 73 | 209 | 4.3 | 14.8 | 0.00 | 0.00 | 0.00 | 30 | 1005.8 |
| 20260504215010 | 73 | 279 | 3.5 | 14.8 | 0.00 | 0.00 | 0.00 | 31 | 1005.8 |
| 20260504214523 | 73 | 217 | 4.3 | 11.3 | 0.00 | 0.00 | 0.00 | 30 | 1005.7 |
| 20260504214009 | 73 | 214 | 4.3 | 11.3 | 0.00 | 0.00 | 0.00 | 30 | 1005.7 |
| 20260504213504 | 73 | 188 | 3.5 | 11.3 | 0.00 | 0.00 | 0.00 | 30 | 1005.8 |
| 20260504213019 | 73 | 242 | 3.5 | 11.3 | 0.00 | 0.00 | 0.00 | 30 | 1005.7 |
| 20260504212503 | 72 | 285 | 5.2 | 11.3 | 0.00 | 0.00 | 0.00 | 30 | 1005.7 |
| 20260504212005 | 72 | 224 | 4.3 | 11.3 | 0.00 | 0.00 | 0.00 | 30 | 1005.7 |
| 20260504211515 | 73 | 236 | 6.1 | 11.3 | 0.00 | 0.00 | 0.00 | 30 | 1005.7 |
| 20260504211004 | 73 | 233 | 4.3 | 7.8 | 0.00 | 0.00 | 0.00 | 30 | 1005.7 |
| 20260504210506 | 73 | 205 | 3.5 | 13.0 | 0.00 | 0.00 | 0.00 | 31 | 1005.7 |
| 20260504205507 | 72 | 205 | 7.8 | 16.5 | 0.00 | 0.00 | 0.00 | 30 | 1005.7 |
| 20260504205007 | 72 | 279 | 7.8 | 16.5 | 0.00 | 0.00 | 0.00 | 29 | 1005.7 |
| 20260504204521 | 73 | 221 | 7.0 | 13.9 | 0.00 | 0.00 | 0.00 | 29 | 1005.7 |
| 20260504204011 | 73 | 222 | 5.2 | 12.2 | 0.00 | 0.00 | 0.00 | 29 | 1005.8 |
| 20260504203513 | 72 | 234 | 6.1 | 13.0 | 0.00 | 0.00 | 0.00 | 28 | 1005.7 |
| 20260504203022 | 73 | 256 | 5.2 | 14.8 | 0.00 | 0.00 | 0.00 | 30 | 1005.8 |
| 20260504202509 | 73 | 225 | 4.3 | 14.8 | 0.00 | 0.00 | 0.00 | 28 | 1005.6 |
| 20260504202004 | 73 | 274 | 5.2 | 14.8 | 0.00 | 0.00 | 0.00 | 28 | 1005.7 |
| 20260504201509 | 73 | 110 | 7.0 | 14.8 | 0.00 | 0.00 | 0.00 | 28 | 1005.7 |
| 20260504201003 | 73 | 222 | 5.2 | 13.0 | 0.00 | 0.00 | 0.00 | 28 | 1005.7 |
| 20260504200503 | 74 | 250 | 7.0 | 16.5 | 0.00 | 0.00 | 0.00 | 28 | 1005.7 |
| 20260504200019 | 73 | 198 | 7.8 | 16.5 | 0.00 | 0.00 | 0.00 | 28 | 1005.8 |
| 20260504195507 | 73 | 319 | 3.5 | 12.2 | 0.00 | 0.00 | 0.00 | 27 | 1005.8 |
| 20260504195007 | 73 | 217 | 7.0 | 15.6 | 0.00 | 0.00 | 0.00 | 27 | 1005.8 |
| 20260504194523 | 73 | 222 | 7.8 | 15.6 | 0.00 | 0.00 | 0.00 | 28 | 1005.9 |
| 20260504194009 | 73 | 255 | 7.8 | 15.6 | 0.00 | 0.00 | 0.00 | 27 | 1005.7 |
| 20260504193024 | 73 | 205 | 7.8 | 14.8 | 0.00 | 0.00 | 0.00 | 28 | 1005.7 |
| 20260504192508 | 73 | 298 | 6.1 | 14.8 | 0.00 | 0.00 | 0.00 | 28 | 1005.7 |
| 20260504192009 | 73 | 341 | 7.0 | 14.8 | 0.00 | 0.00 | 0.00 | 28 | 1005.7 |
| 20260504191537 | 72 | 262 | 7.8 | 15.6 | 0.00 | 0.00 | 0.00 | 30 | 1005.7 |
| 20260504191009 | 72 | 133 | 6.1 | 15.6 | 0.00 | 0.00 | 0.00 | 28 | 1005.8 |
| 20260504190508 | 72 | 271 | 7.8 | 17.4 | 0.00 | 0.00 | 0.00 | 28 | 1005.8 |
| 20260504190019 | 72 | 198 | 6.1 | 17.4 | 0.00 | 0.00 | 0.00 | 30 | 1005.9 |
| 20260504185503 | 72 | 276 | 12.2 | 17.4 | 0.00 | 0.00 | 0.00 | 28 | 1006.2 |
| 20260504185007 | 72 | 224 | 10.4 | 15.6 | 0.00 | 0.00 | 0.00 | 28 | 1006.5 |
| 20260504184532 | 72 | 226 | 6.1 | 18.2 | 0.00 | 0.00 | 0.00 | 28 | 1006.0 |
| 20260504184010 | 72 | 183 | 7.0 | 18.2 | 0.00 | 0.00 | 0.00 | 30 | 1006.1 |
| 20260504183508 | 72 | 287 | 4.3 | 18.2 | 0.00 | 0.00 | 0.00 | 30 | 1006.0 |
| 20260504183029 | 72 | 155 | 7.0 | 17.4 | 0.00 | 0.00 | 0.00 | 30 | 1006.3 |
| 20260504182512 | 71 | 248 | 9.6 | 18.2 | 0.00 | 0.00 | 0.00 | 29 | 1006.3 |
| 20260504182010 | 71 | 160 | 9.6 | 19.1 | 0.00 | 0.00 | 0.00 | 29 | 1006.4 |
| 20260504181523 | 70 | 264 | 5.2 | 19.1 | 0.00 | 0.00 | 0.00 | 32 | 1006.2 |
| 20260504181010 | 70 | 293 | 9.6 | 15.6 | 0.00 | 0.00 | 0.00 | 31 | 1006.1 |
| 20260504180512 | 71 | 257 | 7.0 | 14.8 | 0.00 | 0.00 | 0.00 | 30 | 1006.4 |
| 20260504180033 | 71 | 217 | 6.1 | 15.6 | 0.00 | 0.00 | 0.00 | 30 | 1006.5 |
| 20260504175510 | 70 | 181 | 6.1 | 22.6 | 0.00 | 0.00 | 0.00 | 32 | 1006.5 |
| 20260504175005 | 69 | 272 | 8.7 | 22.6 | 0.00 | 0.00 | 0.00 | 31 | 1006.4 |
| 20260504174513 | 70 | 285 | 8.7 | 21.7 | 0.00 | 0.00 | 0.00 | 30 | 1006.5 |
| 20260504174007 | 69 | 267 | 10.4 | 21.7 | 0.00 | 0.00 | 0.00 | 31 | 1006.6 |
| 20260504173506 | 69 | 216 | 9.6 | 17.4 | 0.00 | 0.00 | 0.00 | 29 | 1006.8 |
| 20260504173020 | 70 | 352 | 7.8 | 17.4 | 0.00 | 0.00 | 0.00 | 30 | 1006.5 |
| 20260504172507 | 69 | 212 | 8.7 | 17.4 | 0.00 | 0.00 | 0.00 | 31 | 1006.6 |
| 20260504172008 | 69 | 213 | 7.8 | 17.4 | 0.00 | 0.00 | 0.00 | 31 | 1006.8 |
| 20260504171522 | 69 | 297 | 7.0 | 15.6 | 0.00 | 0.00 | 0.00 | 31 | 1006.7 |
| 20260504171011 | 69 | 263 | 8.7 | 19.1 | 0.00 | 0.00 | 0.00 | 31 | 1006.8 |
| 20260504170507 | 69 | 295 | 8.7 | 19.1 | 0.00 | 0.00 | 0.00 | 31 | 1006.9 |
| 20260504151005 | 65 | 179 | 7.0 | 16.5 | 0.00 | 0.00 | 0.00 | 36 | 1007.8 |
| 20260504150500 | 65 | 179 | 6.1 | 14.8 | 0.00 | 0.00 | 0.00 | 39 | 1008.0 |
| 20260504141010 | 63 | 291 | 4.3 | 13.0 | 0.00 | 0.03 | 0.00 | 40 | 1008.3 |
| 20260504130507 | 58 | 198 | 5.2 | 10.4 | 0.00 | 0.03 | 0.00 | 45 | 1009.1 |
| 20260504110504 | 48 | 229 | 2.6 | 4.3 | 0.00 | 0.03 | 0.00 | 60 | 1009.9 |
| 20260504100507 | 46 | 262 | 1.7 | 3.5 | 0.00 | 0.03 | 0.00 | 62 | 1010.1 |
| 20260504082006 | 45 | 252 | 0.9 | 2.6 | 0.00 | 0.03 | 0.00 | 62 | 1009.6 |
| 20260504081520 | 45 | 210 | 0.9 | 3.5 | 0.00 | 0.03 | 0.00 | 61 | 1009.7 |
| 20260504081010 | 45 | 245 | 0.9 | 3.5 | 0.00 | 0.03 | 0.00 | 60 | 1009.7 |
| 20260504080508 | 45 | 210 | 0.9 | 3.5 | 0.00 | 0.03 | 0.00 | 61 | 1009.7 |
| 20260504050510 | 42 | 233 | 2.6 | 5.2 | 0.00 | 0.03 | 0.00 | 63 | 1009.7 |
| 20260504045507 | 42 | 214 | 2.6 | 5.2 | 0.00 | 0.03 | 0.00 | 65 | 1009.7 |
| 20260504045007 | 42 | 265 | 2.6 | 4.3 | 0.00 | 0.03 | 0.00 | 65 | 1009.6 |
| 20260504044517 | 42 | 236 | 2.6 | 3.5 | 0.00 | 0.03 | 0.00 | 64 | 1009.7 |
| 20260504044011 | 42 | 220 | 1.7 | 3.5 | 0.00 | 0.03 | 0.00 | 63 | 1009.7 |
| 20260504043513 | 42 | 253 | 1.7 | 3.5 | 0.00 | 0.03 | 0.00 | 62 | 1009.7 |
| 20260504043022 | 42 | 243 | 1.7 | 3.5 | 0.00 | 0.03 | 0.00 | 63 | 1009.7 |
| 20260504042510 | 42 | 230 | 1.7 | 3.5 | 0.00 | 0.03 | 0.00 | 63 | 1009.6 |
| 20260504042009 | 42 | 262 | 1.7 | 6.1 | 0.00 | 0.03 | 0.00 | 63 | 1009.6 |
| 20260504041526 | 42 | 250 | 1.7 | 6.1 | 0.00 | 0.03 | 0.00 | 62 | 1009.6 |
| 20260504041011 | 42 | 218 | 2.6 | 3.5 | 0.00 | 0.03 | 0.00 | 62 | 1009.6 |
| 20260504040510 | 42 | 253 | 1.7 | 3.5 | 0.00 | 0.03 | 0.00 | 62 | 1009.5 |
| 20260504040027 | 42 | 235 | 1.7 | 3.5 | 0.00 | 0.03 | 0.00 | 62 | 1009.5 |